www.pogodaiklimat.ru

Погода и климат >> Архив погоды >> Россия >> Ростовская область >> Шахты


АРХИВ ПОГОДЫ в Шахтах

Время (UTC), дата Ветер
(напр.,м/с)
 
Видим.   Явления Облачность Т
(С)
Тd
(С)
f
(%)
Тe
(С)
Тes
(С)
Комфортность P
(гПа)
Po
(гПа)
Тmin
(С)
Tmax
(С)
R
(мм)
R24
(мм)
S
(см)
03 13.05 З 2 10 км 4/0
[Ci fib]
+12.4 +10.5 88 +11 +12 по сезону 1019.4 1005.2 +10.4
06 13.05 СЗ 1 20 км 4/0
[Ac trans]
+19.0 +12.2 65 +21 +30 комфорт 1018.8 1004.9
09 13.05 З 2 20 км 8/8 1000 м
[Cu med, cong]
+22.4 +11.2 49 +25 +28 комфорт 1017.6 1003.9
12 13.05 СЗ 2 20 км 10/10 1000 м
[Sc diur, vesp]
+21.3 +11.6 54 +23 +23 комфорт 1017.2 1003.4
15 13.05 СЗ 1 20 км 10/10 1000 м
[Sc diur, vesp]
+20.0 +11.8 59 +23 +23 комфорт 1016.6 1002.8 +22.8
18 13.05 штиль 0 10 км 10/10 1000 м
[Sc]
+17.2 +13.2 77 +17 +17 тепло 1016.5 1002.6
21 13.05 З 2 10 км 4/0
[Ac trans]
+15.9 +13.1 83 +16 +16 тепло 1015.6 1001.6
00 14.05 З 1 10 км 10/10 1000 м
[Sc]
+15.7 +12.5 81 +16 +16 тепло 1014.6 1000.6
03 14.05 З 1 20 км 9/9 1000 м
[Sc diur, vesp]
+15.1 +12.4 84 +16 +16 тепло 1014.5 1000.5 +14.8
06 14.05 З 3 20 км 8/3 1000 м
[Cu hum Ac cast Ci]
+20.1 +13.9 67 +23 +26 комфорт 1014.3 1000.5
09 14.05 З 3 20 км 10/8 1000 м
[Sc Ci fib]
+18.4 +14.9 80 +19 +21 по сезону 1014.4 1000.6
12 14.05 З 4 20 км 10/8 1000 м
[Cu med, cong Ci fib]
+23.7 +14.3 56 +26 +28 жарко 1013.4 999.9
15 14.05 З 3
{10}
20 км 8/8 1000 м
[Sc diur, vesp Ci fib]
+23.4 +11.3 47 +26 +26 жарко 1013.3 999.7 +24.8
18 14.05 ЮЗ 1 10 км 3/0
[Ac trans]
+19.8 +13.5 67 +23 +23 комфорт 1014.6 1000.8
21 14.05 З 2 10 км ясно +15.6 +14.2 91 +15 +15 тепло 1014.8 1000.8
00 15.05 З 2 10 км 4/0
[Ci fib]
+14.2 +12.9 92 +14 +14 тепло 1015.5 1001.5
03 15.05 З 1 20 км ясно +15.8 +14.3 91 +16 +17 тепло 1015.6 1001.7 +13.8
06 15.05 С 2 20 км 3/3 1000 м
[Cu hum Ci fib]
+23.1 +16.2 65 +28 +34 душно 1016.2 1002.5
09 15.05 С 2 20 км 1/0
[Ci fib]
+26.2 +12.9 44 +28 +45 жарко 1016.2 1002.7
15 15.05 С 2 20 км 1/0
[Ci fib]
+25.6 +10.6 39 +27 +29 жарко 1016.1 1002.6 +27.8
18 15.05 С 1 10 км ясно +18.0 +10.7 62 +19 +19 тепло 1017.3 1003.4
21 15.05 СВ 1 10 км 1/0
[Ci fib]
+13.5 +11.1 85 +14 +14 по сезону 1017.3 1003.2
00 16.05 штиль 0 10 км ясно +12.1 +11.7 97 +11 +11 по сезону 1017.4 1003.2
03 16.05 С 1 20 км 1/0
[Ci fib]
+15.5 +13.6 88 +16 +17 тепло 1016.7 1002.7 +11.9
06 16.05 СВ 2 20 км ясно +23.3 +16.1 64 +28 +38 душно 1016.5 1002.8
09 16.05 СВ 3 20 км 8/3 1000 м
[Cu hum Ci fib]
+26.6 +15.1 49 +29 +38 жарко 1015.6 1002.1
12 16.05 СВ 3 20 км 6/4 1000 м
[Cu hum Ci fib]
+27.9 +14.1 43 +30 +36 жарко 1014.8 1001.4
15 16.05 СВ 4 20 км 6/6 1000 м
[Cu hum]
+27.6 +16.9 52 +31 +32 душно 1014.1 1000.7 +28.8
18 16.05 СВ 1 10 км 1/0
[Ci fib]
+21.0 +16.0 73 +26 +26 душно 1014.7 1001.0
21 16.05 СВ 1 10 км 3/0
[Cc]
+18.2 +14.7 80 +20 +20 тепло 1015.1 1001.2
00 17.05 СВ 2 10 км 1/0
[Ci fib]
+18.0 +14.2 78 +19 +19 тепло 1014.9 1001.0
03 17.05 СВ 2 20 км 8/0
[Ci fib]
+18.1 +14.8 81 +19 +20 тепло 1014.8 1000.9 +15.9
06 17.05 СВ 3 20 км 3/0
[Ci fib]
+24.0 +17.1 65 +28 +35 душно 1014.8 1001.2
09 17.05 СВ 4 20 км 8/0
[Ci fib]
+28.2 +17.5 52 +32 +42 душно 1014.1 1000.7
12 17.05 СВ 5 20 км 8/6 1000 м
[Cu med, cong Ci fib]
+28.4 +15.8 46 +31 +34 душно 1013.2 999.8
15 17.05 СВ 5 20 км 8/0
[Ac cuf Ci fib]
+27.0 +16.1 51 +30 +31 душно 1012.7 999.3 +29.7
18 17.05 СВ 5 10 км 6/0
[Ac lent Ci fib]
+23.1 +16.0 64 +28 +28 душно 1013.1 999.5
21 17.05 В 4 10 км 6/4 1000 м
[Sc Ac trans]
+20.3 +15.7 75 +23 +23 комфорт 1013.4 999.7
00 18.05 В 5 10 км 8/0
[Ac cast Ci fib]
+18.3 +13.5 74 +18 +18 тепло 1013.5 999.6
03 18.05 СВ 5 20 км 4/0
[Ac cast]
+17.4 +12.6 73 +17 +17 тепло 1013.7 999.9 +16.7
06 18.05 В 8-11
{11}
20 км 4/0
[Ac cast Cc]
+21.1 +12.8 59 +23 +25 комфорт 1013.2 999.5
09 18.05 В 6-10
{13}
20 км ясно +24.2 +10.8 43 +25 +32 комфорт 1013.1 999.6
12 18.05 В 7-10
{13}
20 км 1/0
[Ci fib]
+24.7 +8.6 36 +25 +29 комфорт 1012.1 998.5
15 18.05 В 5
{10}
20 км 3/0
[Ci fib]
+23.2 +8.2 38 +24 +25 комфорт 1011.2 997.6 +25.1
18 18.05 В 3 10 км 4/0
[Ci fib]
+16.4 +8.3 59 +16 +16 по сезону 1012.1 998.2
21 18.05 В 5 10 км ясно +16.4 +5.2 47 +16 +16 тепло 1011.7 997.8
00 19.05 СВ 4 10 км ясно +13.5 +4.6 55 +12 +12 по сезону 1011.6 997.5
03 19.05 В 4 20 км 1/0
[Ci fib]
+13.8 +6.1 60 +12 +13 прохладно 1012.1 998.0 +12.6
06 19.05 В 5 20 км 3/0
[Ci fib]
+20.8 +6.4 39 +22 +27 комфорт 1012.5 998.8
09 19.05 В 5
{10}
20 км 3/0
[Ci fib]
+24.5 +6.4 31 +24 +33 комфорт 1012.6 999.0
12 19.05 В 4
{10}
20 км 4/0
[Ac lent Ci fib]
+26.1 +7.4 30 +26 +33 жарко 1012.4 998.9
15 19.05 СВ 4 20 км 4/0
[Ci fib]
+24.6 +6.2 31 +25 +26 комфорт 1013.0 999.4 +26.1
18 19.05 СВ 2 10 км 3/0
[Ci fib]
+15.8 +8.2 61 +16 +16 по сезону 1014.3 1000.3
21 19.05 СВ 1 10 км 3/0
[Ac trans]
+11.7 +7.7 76 +12 +12 прохладно 1014.6 1000.4

 

Местоположение метеостанции Шахты (Ростовская область, Россия): широта 47.70 долгота 40.27 высота над уровнем моря 117 м.

В архиве по умолчанию представлена погода в Шахтах за последнюю неделю. Архивные данные за месяц целиком и за предыдущие месяцы, начиная с января 2011 года, Вы можете получить, выбрав интересующий диапазон дат из раскрывающегося списка и нажав кнопку "Ввод!".


*Определитесь, кто Вы:
робот инопланетянин человек

Внимание! Время в таблицах - всемирное. Для получения местного времени необходимо прибавить поправку, которая равна 3 ч.

Смотрите также архив погоды в соседних городах и на ближайших метеорологических станциях:

Погода в Аэропорту Платов (Ростовская область, Россия) (35 км)
Погода в Семикаракорске (Ростовская область, Россия) (47 км)
Погода в Ростове-на-Дону (Ростовская область, Россия) (59 км)
Погода в Константиновске (Ростовская область, Россия) (64 км)
Погода в Каменск-Шахтинском (Ростовская область, Россия) (67 км)
Погода в Белой Калитве (Ростовская область, Россия) (72 км)
Погода в Зерноград (Ростовская область, Россия) (95 км)
Погода в Матвеевом Кургане (Ростовская область, Россия) (105 км)
Погода в Таганроге (Ростовская область, Россия) (117 км)
Погода в Маргаритово (Ростовская область, Россия) (136 км)

Пояснения к столбцам:

Ветер - указаны скорость ветра в м/с - средняя за 10 мин, порывы в срок и между сроками (в фигурных скобках) и направление, откуда дует ветер: С - северный, СВ - северо-восточный, В - восточный, ЮВ - юго-восточный, Ю - южный, ЮЗ - юго-западный, З - западный, СЗ - северо-западный.
Видимость - горизонтальная дальность видимости в метрах или километрах. При видимости от 1 до 10 км при отсутствии осадков обычно наблюдается дымка, при ухудшении видимости до 1 км и менее - туман. В сухую погоду видимость может ухудшаться дымом, пылью или мглою.
Явления - указаны атмосферные явления, наблюдавшиеся в срок или в последний час перед сроком; фигурными скобками обозначены явления, наблюдавшиеся между сроками (за 1-3 часа до срока); квадратными скобками обозначены град или гололедные отложения с указанием их диаметра в мм.
Облачность - указаны через наклонную черту общая и нижняя облачность в баллах и высота нижней границы облаков в метрах; квадратными скобками обозначены формы облаков: Ci - перистые, Cs - перисто-слоистые, Cc - перисто-кучевые, Ac - высококучевые, As - высокослоистые, Sc - слоисто-кучевые, Ns - слоисто-дождевые, Cu - кучевые, Cb - кучево-дождевые. Подробнее классификацию облаков см. в Атласе облаков (PDF).
T - Температура воздуха - температура, измеренная на высоте 2 м над землей.
Td - Температура точки росы - температура, при понижении до которой содержащийся в воздухе водяной пар достигнет насыщения.
f - Относительная влажность воздуха - влажноcть воздуха, измеренная на высоте 2 м над землей.
Te - Эффективная температура - температура, которую ощущает одетый по сезону человек в тени. Характеристика душности погоды. При расчете учитывается влияние влажности воздуха и скорости ветра на теплоощущения человека.
Tes - Эффективная температура на солнце - температура, которую ощущает человек, с поправкой на солнечный нагрев. Характеристика знойности погоды. Зависит от высоты солнца над горизонтом, облачности и скорости ветра. Ночью, в пасмурную погоду, а также при ветре 12 м/с и более поправка равна нулю.
P - Атмосферное давление - приведенное к уровню моря атмосферное давление.
Po - Атмосферное давление - измеренное на уровне метеостанции атмосферное давление.
Tmin - Минимальная температура - минимум температуры воздуха на высоте 2 м над землей.
Tmax - Максимальная температура - максимум температуры воздуха на высоте 2 м над землей.
R - Количество осадков - Количество выпавших осадков за период времени, мм. При наведении курсора мыши на число - период времени, за который выпало указанное количество осадков.
R24 - Количество осадков - Количество выпавших осадков за 24 часа, мм.
S - Снежный покров - Высота снежного покрова, см. При наведении курсора мыши на число - состояние снежного покрова и степень покрытия местности в баллах.